TimePST,TemperatureF,Dew PointF,Humidity,Sea Level PressureIn,VisibilityMPH,Wind Direction,Wind SpeedMPH,Gust SpeedMPH,PrecipitationIn,Events,Conditions,WindDirDegrees,DateUTC
12:53 AM,44.1,41.0,89,30.29,10.0,Calm,Calm,-,N/A,,Clear,0,2013-01-29 08:53:00
1:53 AM,43.0,39.9,89,30.30,10.0,Calm,Calm,-,N/A,,Clear,0,2013-01-29 09:53:00
2:53 AM,39.9,37.9,93,30.31,10.0,Calm,Calm,-,N/A,,Clear,0,2013-01-29 10:53:00
3:53 AM,39.9,37.9,93,30.30,10.0,Calm,Calm,-,N/A,,Clear,0,2013-01-29 11:53:00
4:53 AM,39.0,37.0,93,30.31,10.0,Calm,Calm,-,N/A,,Clear,0,2013-01-29 12:53:00
5:53 AM,37.9,37.0,97,30.32,10.0,Calm,Calm,-,N/A,,Clear,0,2013-01-29 13:53:00
6:53 AM,37.9,36.0,93,30.34,10.0,Calm,Calm,-,N/A,,Clear,0,2013-01-29 14:53:00
7:53 AM,39.0,37.0,93,30.34,10.0,Calm,Calm,-,N/A,,Clear,0,2013-01-29 15:53:00
8:53 AM,42.1,39.0,89,30.34,10.0,Calm,Calm,-,N/A,,Clear,0,2013-01-29 16:53:00
9:53 AM,46.0,39.9,79,30.36,10.0,Calm,Calm,-,N/A,,Clear,0,2013-01-29 17:53:00
10:53 AM,48.9,39.9,71,30.36,10.0,Variable,3.5,-,N/A,,Mostly Cloudy,0,2013-01-29 18:53:00
11:53 AM,52.0,39.9,63,30.34,10.0,SW,4.6,-,N/A,,Clear,230,2013-01-29 19:53:00
12:53 PM,55.0,39.9,57,30.30,10.0,SW,3.5,-,N/A,,Clear,230,2013-01-29 20:53:00
1:53 PM,55.9,41.0,57,30.27,10.0,South,3.5,-,N/A,,Mostly Cloudy,180,2013-01-29 21:53:00
2:53 PM,57.9,41.0,53,30.27,10.0,WSW,6.9,-,N/A,,Clear,240,2013-01-29 22:53:00
3:53 PM,57.9,41.0,53,30.27,10.0,West,6.9,-,N/A,,Mostly Cloudy,260,2013-01-29 23:53:00
4:53 PM,55.9,42.1,60,30.27,10.0,South,4.6,-,N/A,,Mostly Cloudy,190,2013-01-30 00:53:00
5:53 PM,53.1,42.1,66,30.28,10.0,Calm,Calm,-,N/A,,Clear,0,2013-01-30 01:53:00
6:53 PM,51.1,42.1,71,30.30,10.0,Calm,Calm,-,N/A,,Clear,0,2013-01-30 02:53:00
7:53 PM,48.0,42.1,80,30.30,10.0,ENE,3.5,-,N/A,,Clear,60,2013-01-30 03:53:00
8:53 PM,46.0,41.0,83,30.30,10.0,ENE,3.5,-,N/A,,Clear,70,2013-01-30 04:53:00
9:53 PM,45.0,39.9,82,30.30,10.0,Calm,Calm,-,N/A,,Clear,0,2013-01-30 05:53:00
10:53 PM,42.1,39.0,89,30.30,10.0,Calm,Calm,-,N/A,,Clear,0,2013-01-30 06:53:00
11:53 PM,43.0,39.0,86,30.30,10.0,SE,3.5,-,N/A,,Clear,140,2013-01-30 07:53:00